Simultaneous Nadir Overpasses (SNOs) Predictions

Prediction of SNOs between AQUA and METOP-A Satellite Orbit:

Table of predicted SNOs for the next 14.0 days since TLE Epoch: 5/8/2021
Index Date (AQUA) Time (AQUA) Lat,Lon (AQUA) SZA (AQUA ) Date (METOP-A) Time (METOP-A) Lat,Lon (METOP-A) SZA (METOP-A ) Distance(km) Time Diff (sec)
1 05/08/2021 06:52:43 77.30, 61.15 60.52 05/08/2021 06:51:46 77.33, 61.14 60.57 3.50 57
2 05/08/2021 07:42:10 -77.34,-131.39 119.44 05/08/2021 07:42:27 -77.36,-131.42 119.43 1.95 17
3 05/11/2021 02:26:58 77.33, 127.47 59.81 05/11/2021 02:26:07 77.34, 127.53 59.84 2.18 51
4 05/11/2021 03:16:25 -77.37, -65.04 120.15 05/11/2021 03:16:48 -77.38, -65.01 120.15 1.34 23
5 05/13/2021 22:01:14 77.36,-166.23 59.15 05/13/2021 22:00:29 77.35,-166.09 59.15 3.44 45
6 05/13/2021 22:50:41 -77.39, 1.28 120.82 05/13/2021 22:51:10 -77.39, 1.39 120.84 2.54 29
7 05/16/2021 17:35:29 77.36, -99.76 58.49 05/16/2021 17:34:51 77.36, -99.72 58.51 1.45 38
8 05/16/2021 18:24:56 -77.38, 67.77 121.49 05/16/2021 18:25:32 -77.40, 67.78 121.48 2.30 36
9 05/19/2021 13:09:43 77.35, -33.32 57.87 05/19/2021 13:09:12 77.37, -33.35 57.90 2.10 31



Historial Predications of SNOs between AQUA and METOP-A
